GW0704 Weather Reports


time (UTC)temp
C
wind
direction
speed
KPH
gust
KPH
rain 1hr
cm
rain 24hr
cm
rain mn
cm
humidity
%
barometer
mb
20260505200405 27 325 14.5 37.0 0.00 0.00 0.00 37 999.4
20260505195904 27 351 27.4 45.1 0.00 0.00 0.00 35 999.5
20260505195405 27 343 24.1 46.7 0.00 0.00 0.00 35 999.6
20260505194904 27 319 14.5 33.8 0.00 0.00 0.00 35 999.6
20260505194404 27 331 16.1 33.8 0.00 0.00 0.00 35 999.6
20260505193904 27 308 20.9 46.7 0.00 0.00 0.00 35 999.6
20260505192904 27 321 24.1 40.2 0.00 0.00 0.00 35 999.7
20260505192404 27 355 17.7 35.4 0.00 0.00 0.00 37 999.9
20260505191905 27 311 4.8 20.9 0.00 0.00 0.00 38 999.8
20260505190904 27 17 14.5 29.0 0.00 0.00 0.00 39 999.9
20260505190405 26 347 25.7 41.8 0.00 0.00 0.00 39 1000.1
20260505185904 26 320 22.5 38.6 0.00 0.00 0.00 40 1000.3
20260505185404 26 341 14.5 37.0 0.00 0.00 0.00 39 1000.4
20260505184904 26 319 22.5 40.2 0.00 0.00 0.00 40 1000.4
20260505184404 26 337 16.1 35.4 0.00 0.00 0.00 42 1000.4
20260505183904 26 335 11.3 29.0 0.00 0.00 0.00 39 1000.4
20260505183404 26 319 16.1 32.2 0.00 0.00 0.00 40 1000.6
20260505182904 26 333 12.9 27.4 0.00 0.00 0.00 41 1000.7
20260505182405 26 324 19.3 35.4 0.00 0.00 0.00 41 1000.7
20260505181904 26 6 22.5 37.0 0.00 0.00 0.00 42 1000.8
20260505181404 25 338 19.3 33.8 0.00 0.00 0.00 42 1001.0
20260505180904 26 332 16.1 41.8 0.00 0.00 0.00 41 1001.1
20260505175404 25 311 16.1 35.4 0.00 0.00 0.00 44 1001.2
20260505174904 25 319 22.5 37.0 0.00 0.00 0.00 44 1001.2
20260505174404 25 312 20.9 41.8 0.00 0.00 0.00 44 1001.5
20260505172904 25 282 19.3 38.6 0.00 0.00 0.00 45 1001.6
20260505172405 25 323 14.5 32.2 0.00 0.00 0.00 46 1001.7
20260505171404 24 327 17.7 35.4 0.00 0.00 0.00 45 1002.0
20260505170904 24 336 20.9 38.6 0.00 0.00 0.00 47 1002.1
20260505170404 23 323 14.5 33.8 0.00 0.00 0.00 46 1002.1
20260505165904 23 324 14.5 32.2 0.00 0.00 0.00 48 1002.2
20260505165404 23 312 8.0 27.4 0.00 0.00 0.00 49 1002.4
20260505164904 23 309 20.9 33.8 0.00 0.03 0.00 48 1002.4
20260505164405 23 317 11.3 32.2 0.00 0.03 0.00 46 1002.3
20260505163903 23 348 11.3 27.4 0.00 0.03 0.00 47 1002.5
20260505163404 23 332 16.1 40.2 0.00 0.03 0.00 47 1002.5
20260505162904 23 338 16.1 32.2 0.00 0.03 0.00 47 1002.6
20260505162404 24 334 12.9 33.8 0.00 0.03 0.00 49 1002.6
20260505161904 24 313 11.3 33.8 0.00 0.05 0.00 49 1002.8
20260505161404 23 346 4.8 20.9 0.00 0.08 0.00 49 1002.8
20260505160404 23 326 11.3 35.4 0.00 0.10 0.00 49 1003.0
20260505152904 22 319 12.9 32.2 0.00 0.10 0.00 50 1003.6
20260505152404 22 298 8.0 22.5 0.00 0.10 0.00 50 1003.7
20260505151404 21 320 6.4 24.1 0.00 0.10 0.00 53 1003.9
20260505150903 20 318 9.7 27.4 0.00 0.10 0.00 51 1003.9
20260505150404 20 313 8.0 22.5 0.00 0.10 0.00 51 1004.0
20260505140404 18 333 12.9 22.5 0.00 0.10 0.00 54 1004.0
20260505124404 15 319 11.3 22.5 0.00 0.10 0.00 63 1004.7
20260505123904 15 313 12.9 20.9 0.00 0.10 0.00 65 1004.6
20260505123404 15 328 12.9 27.4 0.00 0.10 0.00 65 1004.7
20260505122405 13 309 11.3 19.3 0.00 0.10 0.00 77 1004.7
20260505121904 12 144 0.0 0.0 0.00 0.10 0.00 78 1004.8
20260505121404 12 144 0.0 0.0 0.00 0.10 0.00 81 1004.9
20260505120904 11 144 0.0 0.0 0.00 0.10 0.00 81 1005.1
20260505120405 11 144 0.0 8.0 0.00 0.10 0.00 82 1005.2
20260505115905 11 49 0.0 0.0 0.00 0.10 0.00 85 1005.3
20260505115404 10 49 0.0 0.0 0.00 0.10 0.00 88 1005.3
20260505114904 9 49 0.0 0.0 0.00 0.10 0.00 90 1005.4
20260505114404 8 49 0.0 0.0 0.00 0.10 0.00 92 1005.4
20260505113904 8 49 0.0 0.0 0.00 0.10 0.00 94 1005.4
20260505113404 8 49 0.0 0.0 0.00 0.10 0.00 95 1005.3
20260505112904 7 49 0.0 0.0 0.00 0.10 0.00 97 1005.3
20260505111904 6 49 0.0 0.0 0.00 0.10 0.00 97 1005.6
20260505111405 6 49 0.0 0.0 0.00 0.10 0.00 97 1005.5
20260505110904 5 49 0.0 0.0 0.00 0.10 0.00 97 1005.5
20260505110404 5 49 0.0 0.0 0.00 0.10 0.00 97 1005.4
20260505101905 4 49 0.0 0.0 0.00 0.10 0.00 96 1005.5
20260505101405 4 49 0.0 0.0 0.00 0.10 0.00 96 1005.5
20260505100904 4 49 0.0 0.0 0.00 0.10 0.00 96 1005.3
20260505100404 3 49 0.0 0.0 0.00 0.10 0.00 96 1005.3
20260505095904 3 49 0.0 0.0 0.00 0.10 0.00 96 1005.3
20260505095404 3 49 0.0 0.0 0.00 0.10 0.00 96 1005.2
20260505094905 3 49 0.0 0.0 0.00 0.10 0.00 96 1005.1
20260505094404 3 49 0.0 0.0 0.00 0.10 0.00 96 1005.2
20260505093904 3 49 0.0 0.0 0.00 0.10 0.00 96 1005.2
20260505093404 4 49 0.0 0.0 0.00 0.10 0.00 96 1005.3
20260505092905 4 49 0.0 0.0 0.00 0.10 0.00 96 1005.3
20260505091404 4 49 0.0 0.0 0.00 0.10 0.00 96 1005.2
20260505090904 4 49 0.0 0.0 0.00 0.10 0.00 96 1005.3
20260505085904 4 49 0.0 0.0 0.00 0.10 0.00 96 1005.3
20260505085404 4 49 0.0 0.0 0.00 0.10 0.00 96 1005.4
20260505083904 4 49 0.0 0.0 0.00 0.10 0.00 96 1005.5
20260505083404 4 49 0.0 0.0 0.00 0.10 0.00 96 1005.5
20260505082904 4 49 0.0 0.0 0.00 0.10 0.00 96 1005.6
20260505082404 5 49 0.0 0.0 0.00 0.10 0.00 96 1005.6
20260505081904 5 49 0.0 0.0 0.00 0.10 0.00 96 1005.6
20260505081404 5 49 0.0 0.0 0.00 0.10 0.00 96 1005.6
20260505080904 5 49 0.0 0.0 0.00 0.10 0.00 96 1005.6
20260505075904 5 49 0.0 0.0 0.00 0.10 0.00 96 1005.7
20260505075404 5 49 0.0 0.0 0.00 0.10 0.00 95 1005.7
20260505074904 5 49 0.0 0.0 0.00 0.10 0.00 95 1005.7
20260505074404 4 49 0.0 0.0 0.00 0.10 0.00 95 1005.7
20260505073904 5 49 0.0 0.0 0.00 0.10 0.00 95 1005.7
20260505073404 4 49 0.0 0.0 0.00 0.10 0.00 95 1005.7
20260505072905 4 49 0.0 0.0 0.00 0.10 0.00 95 1005.8
20260505072403 4 49 0.0 0.0 0.00 0.10 0.00 95 1005.8
20260505071404 4 49 0.0 0.0 0.00 0.10 0.00 94 1005.7
20260505070904 5 49 0.0 0.0 0.00 0.10 0.00 95 1005.8
20260505065904 5 49 0.0 0.0 0.00 0.10 0.00 94 1005.7
20260505065404 5 49 0.0 0.0 0.00 0.10 0.00 94 1005.7
20260505064904 5 49 0.0 0.0 0.00 0.10 0.00 94 1005.7
20260505064404 5 49 0.0 0.0 0.00 0.10 0.00 94 1005.7
20260505062904 5 49 0.0 0.0 0.00 0.10 0.00 94 1005.7
20260505062405 5 49 0.0 0.0 0.00 0.10 0.00 94 1005.6
20260505061903 5 49 0.0 0.0 0.00 0.10 0.00 93 1005.6
20260505061404 5 49 0.0 0.0 0.00 0.10 0.00 93 1005.6
20260505060904 5 49 0.0 0.0 0.00 0.10 0.00 93 1005.6
20260505060404 5 49 0.0 0.0 0.00 0.10 0.00 93 1005.6
20260505055904 5 49 0.0 0.0 0.00 0.10 0.00 92 1005.6
20260505055404 5 49 0.0 0.0 0.00 0.10 0.00 92 1005.6
20260505054904 6 49 0.0 0.0 0.00 0.10 0.00 91 1005.7
20260505054404 6 49 0.0 0.0 0.00 0.10 0.00 90 1005.6
20260505053904 6 49 0.0 0.0 0.00 0.10 0.00 89 1005.7
20260505053404 7 49 0.0 0.0 0.00 0.10 0.00 90 1005.6
20260505052904 7 49 0.0 0.0 0.00 0.10 0.00 93 1005.6
20260505052404 6 49 0.0 0.0 0.00 0.10 0.00 92 1005.6
20260505051904 6 49 0.0 0.0 0.00 0.10 0.00 92 1005.6
20260505051404 6 49 0.0 0.0 0.00 0.10 0.00 91 1005.7
20260505050904 6 49 0.0 0.0 0.00 0.10 0.00 88 1005.7
20260505050404 7 49 0.0 0.0 0.00 0.10 0.00 90 1005.7
20260505041404 7 49 0.0 0.0 0.00 0.10 0.00 88 1005.2
20260505040904 8 49 0.0 0.0 0.00 0.10 0.00 89 1005.2
20260505040404 8 49 0.0 0.0 0.00 0.10 0.00 89 1005.2
20260505035904 8 49 0.0 0.0 0.00 0.10 0.10 88 1005.2
20260505035404 8 49 0.0 0.0 0.00 0.10 0.10 88 1005.1
20260505034404 8 49 0.0 0.0 0.00 0.10 0.10 87 1005.0
20260505033904 8 49 0.0 0.0 0.00 0.10 0.10 87 1004.9
20260505033404 8 49 0.0 0.0 0.00 0.10 0.10 87 1004.9
20260505032905 8 49 0.0 0.0 0.00 0.10 0.10 87 1004.9
20260505032405 8 49 0.0 0.0 0.00 0.10 0.10 86 1004.9
20260505031905 8 49 0.0 0.0 0.00 0.10 0.10 86 1004.9
20260505031404 9 49 0.0 0.0 0.00 0.10 0.10 84 1004.9
20260505030904 9 49 0.0 0.0 0.00 0.10 0.10 83 1004.8
20260505030405 10 49 0.0 0.0 0.00 0.10 0.10 81 1004.9
20260505025905 10 49 0.0 0.0 0.00 0.10 0.10 80 1004.8
20260505024904 10 49 0.0 0.0 0.00 0.10 0.10 82 1004.9
20260505024404 10 49 0.0 0.0 0.00 0.10 0.10 82 1005.0
20260505023904 10 49 0.0 0.0 0.00 0.10 0.10 82 1005.0
20260505023404 10 49 0.0 0.0 0.00 0.10 0.10 82 1005.0
20260505022404 10 49 0.0 0.0 0.00 0.10 0.10 82 1005.0
20260505021905 10 49 0.0 0.0 0.00 0.10 0.10 81 1005.1
20260505021405 10 49 0.0 0.0 0.00 0.10 0.10 80 1005.1
20260505020904 10 49 0.0 0.0 0.00 0.10 0.10 80 1005.1
20260505020404 10 49 0.0 0.0 0.00 0.10 0.10 80 1005.1
20260505015904 10 49 0.0 0.0 0.00 0.10 0.10 80 1005.1
20260505015404 11 49 0.0 0.0 0.00 0.10 0.10 80 1005.0
20260505014904 11 49 0.0 0.0 0.00 0.10 0.10 79 1005.0
20260505014404 11 49 0.0 0.0 0.00 0.10 0.10 79 1004.9
20260505013904 11 49 0.0 0.0 0.00 0.10 0.10 79 1004.8
20260505013404 11 49 0.0 0.0 0.00 0.10 0.10 78 1004.8
20260505012404 11 49 0.0 0.0 0.00 0.10 0.10 77 1004.7
20260505011405 11 49 0.0 0.0 0.00 0.10 0.10 76 1004.7
20260505010905 11 49 0.0 0.0 0.00 0.10 0.10 76 1004.6
20260505010404 12 49 0.0 0.0 0.00 0.10 0.10 75 1004.5
20260505005404 11 49 0.0 0.0 0.00 0.10 0.10 76 1004.5
20260505004404 12 49 0.0 0.0 0.00 0.10 0.10 74 1004.4
20260505003904 12 49 0.0 0.0 0.00 0.10 0.10 74 1004.4
20260505003404 12 49 0.0 0.0 0.00 0.10 0.10 73 1004.3
20260505002904 12 49 0.0 0.0 0.00 0.10 0.10 72 1004.2
20260505001904 12 49 0.0 0.0 0.00 0.10 0.10 70 1004.0
20260505001404 13 49 0.0 0.0 0.00 0.10 0.10 68 1003.9
20260505000904 13 49 0.0 0.0 0.00 0.10 0.10 67 1003.8
20260505000405 13 49 1.6 4.8 0.00 0.10 0.10 65 1003.7
20260504235904 14 49 1.6 4.8 0.00 0.10 0.10 62 1003.6
20260504235404 15 49 0.0 0.0 0.00 0.10 0.10 60 1003.6
20260504234904 15 49 0.0 0.0 0.00 0.10 0.10 59 1003.5
20260504234404 15 49 0.0 0.0 0.00 0.10 0.10 60 1003.4
20260504233904 15 49 0.0 0.0 0.00 0.10 0.10 60 1003.4
20260504232904 16 49 0.0 0.0 0.00 0.10 0.10 52 1003.3
20260504232404 16 49 0.0 0.0 0.00 0.10 0.10 51 1003.2
20260504231404 16 49 0.0 0.0 0.00 0.10 0.10 53 1003.2
20260504230904 16 49 0.0 0.0 0.00 0.10 0.10 55 1003.1
20260504230403 17 49 0.0 0.0 0.00 0.10 0.10 51 1003.1
20260504225904 17 49 0.0 0.0 0.00 0.10 0.10 50 1003.1
20260504225404 17 49 0.0 0.0 0.00 0.10 0.10 50 1003.0
20260504223904 17 49 0.0 3.2 0.00 0.10 0.10 50 1002.8
20260504223404 17 49 0.0 0.0 0.00 0.10 0.10 50 1002.8
20260504222404 18 49 0.0 0.0 0.00 0.10 0.10 48 1002.9
20260504221404 18 49 1.6 4.8 0.00 0.10 0.10 49 1002.9
20260504220904 18 49 1.6 8.0 0.00 0.10 0.10 49 1002.9
20260504220404 18 76 1.6 8.0 0.00 0.10 0.10 47 1002.9
20260504215904 18 95 0.0 3.2 0.00 0.10 0.10 48 1002.9
20260504214904 18 18 0.0 0.0 0.00 0.10 0.10 49 1003.0
20260504214404 18 16 0.0 4.8 0.00 0.10 0.10 50 1003.1
20260504213904 17 16 4.8 16.1 0.00 0.10 0.10 50 1003.1
20260504212904 18 354 4.8 14.5 0.00 0.10 0.10 51 1003.1
20260504212404 17 58 3.2 16.1 0.00 0.10 0.10 49 1003.2
20260504211904 17 44 3.2 14.5 0.00 0.10 0.10 51 1003.2
20260504211404 17 51 3.2 9.7 0.00 0.10 0.10 51 1003.2
20260504210904 17 32 1.6 19.3 0.00 0.10 0.10 52 1003.2
20260504210404 17 78 3.2 20.9 0.00 0.10 0.10 51 1003.1
20260504205904 17 48 4.8 19.3 0.00 0.10 0.10 51 1003.2
20260504205404 17 42 6.4 19.3 0.00 0.10 0.10 51 1003.2
20260504204904 16 45 0.0 19.3 0.00 0.10 0.10 53 1003.2
20260504204404 16 42 1.6 14.5 0.00 0.10 0.10 51 1003.2
20260504203904 16 39 19.3 27.4 0.00 0.10 0.10 51 1003.2
20260504202904 17 27 9.7 25.7 0.00 0.10 0.10 50 1003.2
20260504202404 17 49 4.8 19.3 0.00 0.10 0.10 52 1003.1
20260504201904 17 72 6.4 29.0 0.00 0.10 0.10 51 1003.1
20260504201404 17 64 8.0 20.9 0.00 0.10 0.10 51 1003.2